,

(GMT )
Entrance

Weather History for CWEL - February, 2013

Change the Weather History Date:

Friday, February 22, 2013

  Actual Average Record
Temperature  
Mean Temperature 45 °F -  
Max Temperature 48 °F - - ()
Min Temperature 42 °F - - ()
Degree Days  
Heating Degree Days 20    
Moisture  
Dew Point 35 °F    
Average Humidity 68    
Maximum Humidity 88    
Minimum Humidity 36    
Precipitation  
Precipitation 0.03 in - - ()
Sea Level Pressure  
Sea Level Pressure 29.68 in    
Wind  
Wind Speed 15 mph ()    
Max Wind Speed 29 mph    
Max Gust Speed 36 mph    
T = Trace of Precipitation, MM = Missing Value Source: Averaged Metar Reports

Daily Weather History Graph

Daily Weather History Graph

Search for Another Location

Airport or City:

Trip Planner

Search our weather history database for the weather conditions in past years. The results will help you decide how hot, cold, wet, or windy it might be!

Date:

Astronomy

Feb. 22, 2013 Rise Set
Actual Time 7:10 AM PST 5:47 PM PST
Civil Twilight 6:38 AM PST 6:19 PM PST
Nautical Twilight 6:01 AM PST 6:56 PM PST
Astronomical Twilight 5:24 AM PST 7:33 PM PST
Moon 2:54 PM PST (2/22) 5:10 AM PST (2/22)
Length of Visible Light 11h 41m
Length of Day
10h 37m
Waxing Gibbous, 91% of the Moon is Illuminated
Feb 22
Waxing Gibbous
Feb 25
Full
Mar 4
Last Quarter
Mar 11
New
Mar 19
First Quarter

Hourly Weather History & Observations

Time (PST) Temp. Windchill Dew Point Humidity Pressure Visibility Wind Dir Wind Speed Gust Speed Precip Events Conditions
12:00 AM 44.4 °F 42.9 °F 34.7 °F 69% 29.94 in - WSW 3.5 mph - 0.01 in   Unknown
1:00 AM 43.2 °F 37.4 °F 38.1 °F 82% 29.92 in - SSE 10.4 mph - 0.01 in   Unknown
2:00 AM 43.7 °F 35.2 °F 38.7 °F 82% 29.89 in - SE 20.7 mph - N/A   Unknown
3:00 AM 43.7 °F 35.4 °F 37.2 °F 78% 29.85 in - SSE 19.6 mph - N/A   Unknown
4:00 AM 44 °F - 36 °F 66% 29.81 in - SSE 25.3 mph - -  
4:00 AM 43.9 °F 34.5 °F 36.5 °F 75% 29.81 in - SSE 25.3 mph - N/A   Unknown
5:00 AM 43.2 °F 33.0 °F 38.1 °F 82% 29.77 in - SE 28.8 mph - N/A   Unknown
6:00 AM 42.8 °F 32.5 °F 39.2 °F 87% 29.75 in - SE 28.8 mph - N/A   Unknown
7:00 AM 42.8 °F 32.5 °F 39.4 °F 88% 29.68 in - SE 28.8 mph - N/A   Unknown
8:00 AM 42.6 °F 32.2 °F 39.2 °F 88% 29.65 in - SSE 28.8 mph 35.7 mph 0.02 in   Unknown
9:00 AM 42.8 °F 32.7 °F 38.5 °F 85% 29.61 in - SE 27.6 mph - N/A   Unknown
10:00 AM 43 °F - 38 °F 78% 29.59 in - SE 26.5 mph - -  
10:00 AM 43.2 °F 33.4 °F 38.5 °F 84% 29.59 in - SE 26.5 mph - 0.01 in   Unknown
12:00 PM 44.8 °F 36.2 °F 38.8 °F 80% 29.54 in - SSE 23.0 mph - N/A   Unknown
1:00 PM 47.3 °F - 39.4 °F 74% 29.53 in - South 13.8 mph - N/A   Unknown
2:00 PM 48.7 °F - 36.5 °F 63% 29.53 in - WSW 13.8 mph 20.7 mph N/A   Unknown
3:00 PM 47.8 °F - 33.1 °F 57% 29.53 in - WSW 15.0 mph 23.0 mph N/A   Unknown
4:00 PM 47 °F - 29 °F 36% 29.56 in - West 13.8 mph - -  
4:00 PM 47.3 °F - 28.8 °F 49% 29.56 in - West 13.8 mph 20.7 mph N/A   Unknown
5:00 PM 47.1 °F - 28.2 °F 48% 29.59 in - WSW 10.4 mph - N/A   Unknown
6:00 PM 45.1 °F 36.9 °F 31.5 °F 59% 29.60 in - West 21.9 mph - N/A   Unknown
7:00 PM 45.1 °F 38.8 °F 28.0 °F 51% 29.62 in - WSW 13.8 mph 19.6 mph N/A   Unknown
8:00 PM 44.1 °F - 28.9 °F 55% 29.66 in - SSW 2.3 mph - N/A   Unknown
9:00 PM 43.3 °F 41.7 °F 29.8 °F 59% 29.69 in - West 3.5 mph - N/A   Unknown
10:00 PM 45 °F - 31 °F 47% 29.73 in - WNW 13.8 mph - -  
10:00 PM 44.6 °F 38.1 °F 31.3 °F 60% 29.73 in - WNW 13.8 mph - N/A   Unknown
11:00 PM 43.2 °F - 30.2 °F 60% 29.76 in - WSW 2.3 mph - N/A   Unknown